THOR ABLESTAR DEB, 658

Orbit data source: Space-Track

THOR ABLESTAR DEB, 658 is space debris in LEO originally from a launch on Thu, 29 Jun 1961 UTC launched from the Air Force Eastern Test Range (AFETR). Debris objects in space refer to the collection of defunct objects orbiting the Earth. Examples of debris include non-operational satellites, rocket bodies, and fragments generated from explosions, collisions, or faulty payload assembly.

Loading next visibility...
THOR ABLESTAR DEB details
Identifier
658, 1961-015HK
Orbit
LEO
Last TLE update12 hours ago
Origin
Flag of USUSAF SSD (US)
ManufacturerUnknown
MissionSpacecraft
Bus & MotorUnknown
MassUnknown
Launch date (UTC)
1961-06-29 (64 years ago)
Launch vehicleUnknown
Launch site
Air Force Eastern Test Range (AFETR)
Object type
Payload
Rocket body
Debris
Shape & HBRUnknown
Radar Cross SectionSmall (<0.1 m²)

Expand to show TLE details & history

TLE from 12 hours ago
0 THOR ABLESTAR DEB
1 00658U 61015HK  25014.82830416  .00004611  00000-0  59213-2 0  9990
2 00658  65.8654 263.6547 0349869  98.1575 265.9306 13.40843608990109
Epoch: 2025-01-14T19:52Z
Definitive object data (Epoch: 2025-01-14T19:52:45.479Z)
Latitude-0.00002°
Longitude-149.0642°
Altitude1,135.758 km
Speed7.272 km/s
True Right ascension17h 34m 37s
True Declination0° 00' 00"
Sunlit
Object was in daylight at TLE epoch
Visualization TLE readout
Latitude-65.8387°
Longitude113.40558°
Altitude1,387.381 km
Speed7.041 km/s
Apparent Right ascension17h 58m 10s
Apparent Declination-74° 39' 27"
Sunlit
Object is in daylight
Visualization observer readout
Local Sidereal Time08:35:08
Azimuth164.613° S
Elevation-50.893°
Doppler factor1
Orbital elements
Apogee altitude1,366.474 km
Perigee altitude842.874 km
Semi-major axis7,482.811 km
Eccentricity0.0349869
Inclination65.8654°
RAAN263.6547°
Arg. of periapsis98.1575°
True anomaly261.94709°
Mean anomaly265.9306°
Eccentric anomaly263.93721°
Mean motion3.3531 °/min
BSTAR0.0059213
Orbital period107.36 mins
Loading maneuver chart data...

THOR ABLESTAR DEB Visibility forecast

Observer location: undefined°, undefined

Span
Click to sort rows by Start time (UTC) header in descending order
Start Az.
Max El. time (UTC)
Max El. Az.
Max El.
End time (UTC)
End Az.
11 mins2025-01-15 17:27:31.190Z185.654° SSW2025-01-15 17:33:31.190Z118.981° SE36.26°2025-01-15 17:38:31.190Z45.088° ENE
8 mins2025-01-15 19:20:31.190Z260.743° W2025-01-15 19:24:31.190Z314.351° NW26.238°2025-01-15 19:28:31.190Z5.986° NNE
10 mins2025-01-16 02:52:31.190Z336.714° NNW2025-01-16 02:56:31.190Z46.585° ENE43.267°2025-01-16 03:02:31.190Z142.167° SSE
5 mins2025-01-16 04:44:31.190Z277.254° WNW2025-01-16 04:46:31.190Z254.258° W15.75°2025-01-16 04:49:31.190Z222.338° SW
|